User: anonymous   Login
Location: OHP
(43.9325°N, 5.7154°E)
Time: 03:14:36
(UTC+01:00)
Language:

Hubble Space Telescope - Orbit

View from above orbital plane
View from above orbital plane
View from above satellite
View from above satellite

Ground track
Ground track

The orbit data is extracted from the following two-line orbital elements,

1 20580U 90037B   21206.34145427  .00000614  00000-0  26165-4 0  9990
2 20580  28.4689 174.3773 0002944 110.3455  41.7730 15.09688326516747
Epoch (UTC): 25 July 2021 08:11:41
Eccentricity: 0.0002944
inclination: 28.4689°
perigee height: 535 km
apogee height: 539 km
right ascension of ascending node: 174.3773°
argument of perigee: 110.3455°
revolutions per day: 15.09688326
mean anomaly at epoch: 41.7730°
orbit number at epoch: 51674

The dashed part of the orbit path shows where the satellite is in the earth's shadow,  

DLR